Find Starlink 5305

NORAD ID: 55314 Int'l Des: 2023-010 Owner: SPXS Country: US Constellation: starlink operational
LEOCIRCULAR

Live Position

Loading 3D Globe...

About Starlink 5305

Description loading...

Upcoming Passes

Passes for default location (London). Set your location on the main map for personalized predictions.

Altitude History

Loading altitude history...

Two-Line Element Set

1 55314U 23010AX 26112.10249000 -.00004359 00000-0 -35755-3 0 9993
2 55314 70.0003 255.0468 0002962 272.8812 87.2008 14.98352708181146
Epoch: Apr 22, 2026 • Age: 16 hours

Current Status

Altitude 574.0 km
Velocity 7.57 km/s
Sub-Earth Point 9.29°N, 128.04°E
Launch Date Jan 19, 2023
Age 3.2 years
Type internet

Technical Details

Classification Payload
Mass 305.00 kg
Dry Mass 290.00 kg
Total Mass 305.00 kg
Length 0.20 m
Diameter 2.80 m
Span 9.00 m
Shape Box + pan
Manufacturer SPXS
Bus Type Starlink
Phase Status In Orbit
Owner/State SPXS/US

Most Searched